| time (UTC) | temp C | wind direction | speed KPH | gust KPH | rain 1hr cm | rain 24hr cm | rain mn cm | humidity % | barometer mb |
| 20260508004535 | 5 | 0 | 0.0 | 0.0 | 0.00 | 0.00 | 0.00 | 86 | 1016.1 |
| 20260508003041 | 6 | 0 | 0.0 | 1.6 | 0.00 | 0.00 | 0.00 | 86 | 1016.1 |
| 20260508001542 | 6 | 0 | 0.0 | 1.6 | 0.00 | 0.00 | 0.00 | 85 | 1016.1 |
| 20260508000038 | 6 | 0 | 0.0 | 0.0 | 0.00 | 0.00 | 0.00 | 85 | 1016.1 |
| 20260507234536 | 6 | 0 | 0.0 | 1.6 | 0.00 | 0.00 | 0.00 | 85 | 1016.1 |
| 20260507233053 | 6 | 0 | 0.0 | 1.6 | 0.00 | 0.00 | 0.00 | 85 | 1016.2 |
| 20260507231538 | 7 | 0 | 0.0 | 1.6 | 0.00 | 0.00 | 0.00 | 84 | 1016.3 |
| 20260507230043 | 7 | 0 | 0.0 | 4.8 | 0.00 | 0.00 | 0.00 | 84 | 1016.3 |
| 20260507224543 | 7 | 0 | 0.0 | 1.6 | 0.00 | 0.00 | 0.00 | 84 | 1016.3 |
| 20260507223036 | 7 | 83 | 0.0 | 3.2 | 0.00 | 0.00 | 0.00 | 84 | 1016.5 |
| 20260507221537 | 7 | 0 | 0.0 | 3.2 | 0.00 | 0.00 | 0.00 | 83 | 1016.7 |
| 20260507220035 | 8 | 0 | 0.0 | 3.2 | 0.00 | 0.00 | 0.00 | 82 | 1016.6 |
| 20260507214542 | 8 | 0 | 0.0 | 3.2 | 0.00 | 0.00 | 0.00 | 82 | 1016.7 |
| 20260507213041 | 8 | 0 | 0.0 | 4.8 | 0.00 | 0.00 | 0.00 | 82 | 1016.7 |
| 20260507211536 | 9 | 86 | 1.6 | 6.4 | 0.00 | 0.00 | 0.00 | 83 | 1016.6 |
| 20260507210048 | 9 | 0 | 1.6 | 9.7 | 0.00 | 0.00 | 0.00 | 82 | 1016.5 |
| 20260507204538 | 9 | 62 | 1.6 | 6.4 | 0.00 | 0.00 | 0.00 | 80 | 1016.4 |
| 20260507203044 | 10 | 71 | 0.0 | 4.8 | 0.00 | 0.00 | 0.00 | 79 | 1016.3 |
| 20260507201539 | 10 | 0 | 0.0 | 4.8 | 0.00 | 0.00 | 0.00 | 78 | 1016.3 |
| 20260507200036 | 10 | 0 | 0.0 | 3.2 | 0.00 | 0.00 | 0.00 | 77 | 1016.1 |
| 20260507194611 | 11 | 68 | 0.0 | 4.8 | 0.00 | 0.00 | 0.00 | 76 | 1016.0 |
| 20260507193043 | 11 | 62 | 1.6 | 6.4 | 0.00 | 0.00 | 0.00 | 75 | 1015.8 |
| 20260507191539 | 11 | 59 | 0.0 | 6.4 | 0.00 | 0.00 | 0.00 | 74 | 1015.8 |
| 20260507190042 | 11 | 76 | 0.0 | 6.4 | 0.00 | 0.00 | 0.00 | 73 | 1015.8 |
| 20260507184538 | 11 | 65 | 1.6 | 6.4 | 0.00 | 0.00 | 0.00 | 73 | 1015.7 |
| 20260507183043 | 12 | 88 | 3.2 | 12.9 | 0.00 | 0.00 | 0.00 | 72 | 1015.8 |
| 20260507181546 | 12 | 52 | 1.6 | 11.3 | 0.00 | 0.00 | 0.00 | 70 | 1015.6 |
| 20260507180040 | 12 | 48 | 1.6 | 12.9 | 0.00 | 0.00 | 0.00 | 69 | 1015.6 |
| 20260507174546 | 12 | 39 | 3.2 | 11.3 | 0.00 | 0.00 | 0.00 | 67 | 1015.5 |
| 20260507173053 | 12 | 0 | 1.6 | 6.4 | 0.00 | 0.00 | 0.00 | 66 | 1015.5 |
| 20260507171548 | 12 | 49 | 0.0 | 9.7 | 0.00 | 0.00 | 0.00 | 66 | 1015.5 |
| 20260507170043 | 12 | 0 | 0.0 | 6.4 | 0.00 | 0.00 | 0.00 | 67 | 1015.5 |
| 20260507164548 | 12 | 0 | 1.6 | 14.5 | 0.00 | 0.00 | 0.00 | 66 | 1015.5 |
| 20260507163040 | 13 | 170 | 4.8 | 11.3 | 0.00 | 0.00 | 0.00 | 65 | 1015.6 |
| 20260507161555 | 13 | 128 | 3.2 | 16.1 | 0.00 | 0.00 | 0.00 | 65 | 1015.5 |
| 20260507160040 | 13 | 71 | 1.6 | 12.9 | 0.00 | 0.00 | 0.00 | 67 | 1015.6 |
| 20260507154540 | 12 | 44 | 1.6 | 11.3 | 0.00 | 0.00 | 0.00 | 68 | 1015.7 |
| 20260507153041 | 12 | 69 | 0.0 | 6.4 | 0.00 | 0.00 | 0.00 | 68 | 1015.8 |
| 20260507151536 | 12 | 78 | 3.2 | 11.3 | 0.00 | 0.00 | 0.00 | 68 | 1015.7 |
| 20260507150036 | 12 | 58 | 3.2 | 11.3 | 0.00 | 0.00 | 0.00 | 70 | 1015.7 |
| 20260507144544 | 11 | 0 | 3.2 | 12.9 | 0.00 | 0.00 | 0.00 | 69 | 1015.7 |
| 20260507143043 | 12 | 82 | 1.6 | 9.7 | 0.00 | 0.00 | 0.00 | 69 | 1015.8 |
| 20260507141545 | 12 | 116 | 3.2 | 16.1 | 0.00 | 0.00 | 0.00 | 68 | 1015.8 |
| 20260507140039 | 12 | 63 | 3.2 | 12.9 | 0.00 | 0.00 | 0.00 | 67 | 1015.9 |
| 20260507134535 | 12 | 74 | 3.2 | 11.3 | 0.00 | 0.00 | 0.00 | 68 | 1016.0 |
| 20260507133035 | 12 | 74 | 1.6 | 8.0 | 0.00 | 0.00 | 0.00 | 65 | 1016.0 |
| 20260507131541 | 12 | 112 | 3.2 | 6.4 | 0.00 | 0.00 | 0.00 | 65 | 1016.0 |
| 20260507130039 | 12 | 89 | 1.6 | 8.0 | 0.00 | 0.00 | 0.00 | 65 | 1016.1 |
| 20260507124535 | 12 | 76 | 1.6 | 8.0 | 0.00 | 0.00 | 0.00 | 66 | 1016.1 |
| 20260507123040 | 11 | 92 | 3.2 | 9.7 | 0.00 | 0.00 | 0.00 | 65 | 1016.1 |
| 20260507121543 | 11 | 75 | 0.0 | 6.4 | 0.00 | 0.00 | 0.00 | 64 | 1016.3 |
| 20260507120044 | 11 | 70 | 3.2 | 6.4 | 0.00 | 0.00 | 0.00 | 68 | 1016.3 |
| 20260507114539 | 11 | 60 | 1.6 | 6.4 | 0.00 | 0.00 | 0.00 | 66 | 1016.2 |
| 20260507113042 | 11 | 65 | 3.2 | 9.7 | 0.00 | 0.00 | 0.00 | 67 | 1016.1 |
| 20260507111536 | 11 | 0 | 0.0 | 6.4 | 0.00 | 0.00 | 0.00 | 65 | 1016.2 |
| 20260507110042 | 11 | 0 | 0.0 | 6.4 | 0.00 | 0.00 | 0.00 | 68 | 1016.2 |
| 20260507104540 | 12 | 52 | 1.6 | 6.4 | 0.00 | 0.00 | 0.00 | 67 | 1016.3 |
| 20260507103038 | 11 | 0 | 0.0 | 3.2 | 0.00 | 0.00 | 0.00 | 68 | 1016.4 |
| 20260507101537 | 11 | 46 | 1.6 | 8.0 | 0.00 | 0.00 | 0.00 | 66 | 1016.4 |
| 20260507100039 | 11 | 0 | 0.0 | 3.2 | 0.00 | 0.00 | 0.00 | 71 | 1016.5 |
| 20260507094535 | 11 | 64 | 0.0 | 6.4 | 0.00 | 0.00 | 0.00 | 73 | 1016.4 |
| 20260507093041 | 11 | 73 | 1.6 | 4.8 | 0.00 | 0.00 | 0.00 | 71 | 1016.3 |
| 20260507091538 | 11 | 134 | 1.6 | 9.7 | 0.00 | 0.00 | 0.00 | 70 | 1016.3 |
| 20260507090038 | 11 | 65 | 0.0 | 6.4 | 0.00 | 0.00 | 0.00 | 72 | 1016.3 |
| 20260507084535 | 11 | 168 | 1.6 | 8.0 | 0.00 | 0.00 | 0.00 | 71 | 1016.3 |
| 20260507083036 | 11 | 0 | 1.6 | 11.3 | 0.00 | 0.00 | 0.00 | 72 | 1016.2 |
| 20260507081543 | 11 | 40 | 3.2 | 17.7 | 0.00 | 0.00 | 0.00 | 73 | 1016.2 |
| 20260507080040 | 10 | 96 | 1.6 | 8.0 | 0.00 | 0.00 | 0.00 | 77 | 1016.2 |
| 20260507074538 | 10 | 0 | 0.0 | 8.0 | 0.00 | 0.00 | 0.00 | 80 | 1016.1 |
| 20260507073035 | 10 | 63 | 1.6 | 6.4 | 0.00 | 0.00 | 0.00 | 83 | 1016.1 |
| 20260507071538 | 9 | 0 | 1.6 | 6.4 | 0.00 | 0.00 | 0.00 | 84 | 1016.0 |
| 20260507070043 | 8 | 82 | 3.2 | 9.7 | 0.00 | 0.00 | 0.00 | 84 | 1015.9 |
| 20260507064548 | 8 | 57 | 1.6 | 4.8 | 0.00 | 0.00 | 0.00 | 87 | 1015.9 |
| 20260507063047 | 8 | 77 | 1.6 | 4.8 | 0.00 | 0.00 | 0.00 | 88 | 1015.9 |
| 20260507061540 | 7 | 0 | 0.0 | 3.2 | 0.00 | 0.00 | 0.00 | 88 | 1015.9 |
| 20260507060044 | 7 | 0 | 0.0 | 1.6 | 0.00 | 0.00 | 0.00 | 88 | 1015.8 |
| 20260507054536 | 7 | 0 | 0.0 | 0.0 | 0.00 | 0.00 | 0.00 | 87 | 1015.6 |
| 20260507053037 | 7 | 0 | 0.0 | 1.6 | 0.00 | 0.00 | 0.00 | 86 | 1015.5 |
| 20260507051542 | 7 | 0 | 0.0 | 0.0 | 0.00 | 0.00 | 0.00 | 85 | 1015.6 |
| 20260507050041 | 7 | 0 | 0.0 | 0.0 | 0.00 | 0.00 | 0.00 | 85 | 1015.4 |
| 20260507044537 | 7 | 0 | 0.0 | 0.0 | 0.00 | 0.00 | 0.00 | 85 | 1015.4 |
| 20260507043038 | 7 | 0 | 0.0 | 0.0 | 0.00 | 0.00 | 0.00 | 85 | 1015.3 |
| 20260507041543 | 7 | 0 | 0.0 | 0.0 | 0.00 | 0.00 | 0.00 | 84 | 1015.3 |
| 20260507040040 | 7 | 0 | 0.0 | 0.0 | 0.00 | 0.00 | 0.00 | 84 | 1015.3 |
| 20260507034546 | 7 | 0 | 0.0 | 0.0 | 0.00 | 0.00 | 0.00 | 84 | 1015.3 |
| 20260507033049 | 7 | 0 | 0.0 | 0.0 | 0.00 | 0.00 | 0.00 | 84 | 1015.1 |
| 20260507031535 | 7 | 0 | 0.0 | 0.0 | 0.00 | 0.00 | 0.00 | 84 | 1015.1 |
| 20260507030035 | 7 | 0 | 0.0 | 0.0 | 0.00 | 0.00 | 0.00 | 83 | 1015.1 |
| 20260507024547 | 7 | 0 | 0.0 | 0.0 | 0.00 | 0.00 | 0.00 | 83 | 1015.0 |
| 20260507023036 | 7 | 0 | 0.0 | 0.0 | 0.00 | 0.00 | 0.00 | 83 | 1015.0 |
| 20260507021535 | 7 | 0 | 0.0 | 0.0 | 0.00 | 0.00 | 0.00 | 82 | 1014.9 |
| 20260507020037 | 7 | 0 | 0.0 | 0.0 | 0.00 | 0.00 | 0.00 | 81 | 1014.7 |
| 20260507014538 | 8 | 0 | 0.0 | 0.0 | 0.00 | 0.00 | 0.00 | 81 | 1014.7 |
| 20260507013039 | 8 | 0 | 0.0 | 0.0 | 0.00 | 0.00 | 0.00 | 80 | 1014.7 |
| 20260507011538 | 8 | 0 | 0.0 | 0.0 | 0.00 | 0.00 | 0.00 | 79 | 1014.7 |
| 20260507010040 | 8 | 0 | 0.0 | 0.0 | 0.00 | 0.00 | 0.00 | 78 | 1014.7 |